Москва (Запад)

Россия / Московская область     55°45′00″N   37°19′58″E
темп.,
°C
ветер,
м/с
пор.,
м/с
влажн.,
%
обл.,
%
осадки,
мм/ч
давл.,
гПа
погр.,
м
19 апреля, пн
пн1900:00+8всв496284 0.0 1023872
03:00+8св4972100 0.0 1023735
06:00+7всв51081100 0.0 1022609
09:00+7всв5871100 0.0 1023751
12:00+10всв6852100 0.0 10231118
15:00+11всв6845100 0.0 10221668
18:00+10всв6949100 0.0 10221419
21:00+8в694791 0.0 10231203
20 апреля, вт
вт2000:00+6в4949100 0.0 10231226
03:00+3в51084100 0.4 1023754
06:00+4в5106198 0.1 1021730
09:00+4в5965100 0.1 1021718
12:00+4в61087100 0.1 1021769
15:00+3всв51093100 0.4 1019604
18:00+2всв41395100 0.6 1017593
21:00+3в51295100 1.3 1014674
21 апреля, ср
ср2100:00+3всв51496100 1.6 1009784
03:00+2всв61496100 6.3 1005811
06:000св51299100 6.4 1001496
09:00+1ссз47100100 11.9 999339
12:00+1з37100100 3.3 1000315
15:00+2зюз510100100 3.5 1004768
18:00+3юз51199100 0.1 1007846
21:00+3ю4119792 0.1 1009508
22 апреля, чт
чт2200:00+3ююз4119675 0.0 1011499
03:00+2ю4109651 0.0 1011307
06:00+3ююз41195100 1.1 1012483
09:00+4ю3995100 1.5 1013441
12:00+8ююз4883100 0.0 1014801
15:00+10юз367799 0.1 1015829
18:00+11ю36747 0.1 1015340
21:00+7ююз27905 0.1 1017156
23 апреля, пт
пт2300:00+6ю25947 0.0 1017104
03:00+5ю289327 0.0 1016154
06:00+5ю29947 0.0 1016197
09:00+10ю4117529 0.0 1016482
12:00+15ю610535 0.3 10151534
15:00+16ю711455 0.4 10131977
18:00+15ю611525 0.0 10121439
21:00+12ююв6136325 0.0 1012966